Location: Newark
(37.8333°N, 119.5000°W)
Time: 11:39:49
(UTC+00:00)

Transit 4A - Visible Passes

Search period start: 05 August 2020 00:00
Search period end: 15 August 2020 00:00
Orbit: 865 x 980 km, 66.8° (Epoch: 05 August)

Date Brightness Start Highest point End Pass type
(mag) Time Alt. Az. Time Alt. Az. Time Alt. Az.
05 Aug 8.1 03:30:01 10° NNW 03:36:26 84° ENE 03:42:50 10° SSE visible
05 Aug 10.3 05:18:48 10° WNW 05:21:58 14° WSW 05:25:09 10° SW visible
06 Aug 8.4 03:39:24 10° NNW 03:45:43 67° WSW 03:52:03 10° SSE visible
07 Aug 9.1 03:48:57 10° NW 03:54:57 44° WSW 04:00:57 10° S visible
08 Aug 9.7 03:58:42 10° NW 04:04:05 29° WSW 04:09:29 10° SSW visible
09 Aug 10.3 04:08:51 10° WNW 04:13:10 19° WSW 04:17:29 10° SSW visible
10 Aug 10.7 04:20:02 10° W 04:22:10 12° W 04:24:18 10° WSW visible
